Home > Weather > Cumaná > Past weeks

Flag for Venezuela Weather for the Past 2 Weeks in Cumaná, Venezuela

Now
90 °F

Passing clouds.


Feels Like: 98 °F
Forecast: N/A
Wind: N/A

Location: Margarita / Del Carib

Current Time: Apr 28, 2016 at 5:48:25 PM

Latest Report: Apr 28, 2016 at 4:30 PM


Visibility: N/A

Pressure: 29.77 "Hg

Humidity: 59%

Dew Point: 73 °F

Location of CumanáLocation

Historic Weather in Cumaná — Graph

°F

Cumaná Temperature Yesterday

Maximum temperature yesterday: 93 °F (at 2:30 PM)
Minimum temperature yesterday: 79 °F (at 1:30 AM)
Average temperature yesterday: 84 °F

High & Low Weather Summary for the Past Weeks

 TemperatureHumidityPressure
High93 °F (Apr 14, 1:30 PM)100% (Apr 14, 10:30 AM)29.95 "Hg (Apr 14, 10:30 AM)
Low72 °F (Apr 14, 10:30 AM)41% (Apr 15, 1:30 PM)29.77 "Hg (Apr 15, 4:30 PM)
Average84 °F75%29.86 "Hg
* Reported Apr 13 4:30 PM — Apr 28 4:30 PM, Cumaná, Weather by CustomWeather, © 2016

Note: Actual official high and low records may vary slightly from our data, if they occured in-between our weather recording intervals... More about our weather records

Advertising

Cumaná Weather History for the Previous 24 Hours

Scroll right to see more
 ConditionsComfort  
Time TempWeatherWind HumidityBarometerVisibility
4:30 PM
Thu, Apr 28
90 °FPassing clouds.N/A59%29.77 "HgN/A
3:30 PM91 °FPassing clouds.N/A52%29.77 "HgN/A
1:30 PM91 °FPassing clouds.N/A49%29.83 "HgN/A
12:30 PM90 °FPassing clouds.N/A52%29.86 "HgN/A
11:30 AM90 °FPassing clouds.N/A55%29.86 "HgN/A
10:30 AM88 °FPassing clouds.N/A59%29.89 "HgN/A
9:30 AM86 °FPassing clouds.N/A66%29.89 "HgN/A
8:30 AM84 °FPassing clouds.N/A74%29.86 "HgN/A
7:30 AM82 °FPassing clouds.N/A79%29.86 "HgN/A
6:30 AM79 °FPassing clouds.N/A89%29.86 "HgN/A
5:30 AM77 °FPassing clouds.N/A89%29.86 "HgN/A
4:30 AM77 °FPassing clouds.N/A94%29.86 "HgN/A
3:30 AM77 °FPassing clouds.N/A94%29.86 "HgN/A
2:30 AM79 °FPassing clouds.N/A89%29.86 "HgN/A
1:30 AM79 °FPassing clouds.N/A89%29.89 "HgN/A
12:30 AM79 °FPassing clouds.N/A89%29.89 "HgN/A
11:30 PM
Wed, Apr 27
81 °FPassing clouds.N/A84%29.89 "HgN/A
10:30 PM81 °FPassing clouds.N/A84%29.86 "HgN/A
9:30 PM81 °FPassing clouds.N/A84%29.86 "HgN/A
8:30 PM82 °FPassing clouds.N/A79%29.86 "HgN/A
7:30 PM82 °FPassing clouds.N/A79%29.83 "HgN/A
6:30 PM84 °FPassing clouds.N/A74%29.83 "HgN/A
5:30 PM88 °FPassing clouds.N/A62%29.80 "HgN/A
Weather by CustomWeather, © 2016

See weather overviewHow to use our weather pages